Orbital Elements at Epoch 2459200.5 (2020-Dec-17.0) TDB
Reference: JPL 25 (heliocentric ecliptic J2000)
Element | Value | Uncertainty (1-sigma) | Units |
e | .2601222837672935 | 4.6373e-08 | |
a | 2.349583834328502 | 1.2063e-08 | au |
q | 1.738404721440258 | 1.1043e-07 | au |
i | 26.20181416521091 | 5.1874e-06 | deg |
node | 45.68571449802621 | 1.0064e-05 | deg |
peri | 337.1460357784263 | 1.3218e-05 | deg |
M | 299.5743157954567 | 1.2583e-05 | deg |
tp | 2459421.302466783331 (2021-Jul-25.80246678) | 4.7108e-05 | TDB |
period | 1315.481803613941 3.60 | 1.013e-05 2.773e-08 | d yr |
n | .2736639906466167 | 2.1075e-09 | deg/d |
Q | 2.960762947216746 | 1.52e-08 | au |
|
| | Orbit Determination Parameters
Additional Information
|